Starlink 1595

operational
NORAD ID: 46159 Int'l Des: 2020-057 Owner: SPXS Country: US Constellation: starlink
LEOCIRCULAR

Über Starlink 1595

Beschreibung wird geladen...

Live-Position

3D-Globus wird geladen...

Nächste Überflüge

Höhenverlauf

Altitude vs Time

uPlot chart will show altitude changes over time

Zweizeiliger Elementsatz

1 46159U 20057AU 26063.13132230 .00133385 00000-0 23990-2 0 9999
2 46159 53.0508 323.3206 0007703 100.2203 259.9673 15.48881549306746
Epoch: 4. März 2026 • Age: 23 hours

Aktueller Status

Höhe 428.3 km
Geschwindigkeit 7.65 km/s
Subsatellitenpunkt -24.93°S, 17.43°E
Startdatum 18. Aug. 2020
Alter 5.5 years
Typ internet

Technische Details

Klassifizierung Payload
Masse 260.00 kg
Trockenmasse 248.00 kg
Gesamtmasse 260.00 kg
Länge 0.20 m
Durchmesser 2.80 m
Spannweite 9.00 m
Form Box + pan
Hersteller SPXS
Bus-Typ Starlink
Phasenstatus In Orbit
Besitzer/Staat SPXS/US

Große Konstellationen

Loading constellations...